Regional Weather Roundup
Issued by NWS

Home | Current Version | Previous Version | Graphics & Text | Print | Product List | Glossary On
Versions: 1 2 3 4 5 6 7 8 9 10 11 12 13 14 15 16 17 18 19 20 21 22 23 24 25 26 27 28 29 30 31 32 33 34 35 36 37 38 39 40 41 42 43 44 45 46 47 48 49 50
000
ASUS43 KMPX 271801
RWRMN
WEATHER ROUNDUP FOR MINNESOTA
NATIONAL WEATHER SERVICE TWIN CITIES/CHANHASSEN MN
1200 PM CST TUE JAN 27 2015


NOTE: "FAIR" INDICATES FEW OR NO CLOUDS BELOW 12,000 FEET WITH NO
SIGNIFICANT WEATHER AND/OR OBSTRUCTIONS TO VISIBILITY. N/A MEANS
CURRENT SKY AND/OR WEATHER CONDITIONS ARE NOT AVAILABLE.

MNZ060>063-068>070-271900-
   Twin Cities Metro

CITY           SKY/WX    TMP DP  RH WIND       PRES   REMARKS
TWIN CITIES    CLOUDY    33  24  69 E6        30.17F WCI  28
6HR MIN TEMP:  32; 6HR MAX TEMP:  33;

ST PAUL        CLOUDY    33  24  69 E5        30.20S WCI  29
CRYSTAL        CLOUDY    34  26  72 E6        30.16S WCI  29
BLAINE         CLOUDY    34  27  75 CALM      30.18R
LAKEVILLE      CLOUDY    30  27  86 E7        30.16F WCI  23
EDEN PRAIRIE   CLOUDY    34  25  69 SE6       30.16S WCI  29
6HR MIN TEMP:  32; 6HR MAX TEMP:  35;

SOUTH ST PAUL  CLOUDY    32  24  72 CALM      30.18S
LAKE ELMO      CLOUDY    32  27  80 CALM      30.19S
$$
MNZ001>005-007-008-013>017-022>024-027-028-271900-
   Northwest Minnesota

CITY           SKY/WX    TMP DP  RH WIND       PRES   REMARKS
BEMIDJI        PTSUNNY   31  26  84 SE7       30.06F WCI  24
HALLOCK        CLOUDY    28  27  93 S12       30.00F FOG     WCI  18
ROSEAU         CLOUDY    27  21  80 S6        30.03F WCI  20
WARROAD        CLOUDY    27  21  80 SE6       30.04F WCI  20
THIEF RVR FALL CLOUDY    27  27 100 SE10      30.04F WCI  17
CROOKSTON      CLOUDY    28  28 100 S14       30.05F WCI  17
FOSSTON        CLOUDY    30  27  86 SE8       30.05F WCI  23
DETROIT LAKES  CLOUDY    30  30 100 SE10      30.07F WCI  21
MOORHEAD       CLOUDY    30  30 100 SE16      30.07F WCI  19
PARK RAPIDS    CLOUDY    30  26  85 S10       30.08F WCI  21
MAHNOMEN       FAIR      29  27  91 S10       30.06F WCI  20
$$
MNZ006-009>011-018-025>026-271900-
   North Central Minnesota

CITY           SKY/WX    TMP DP  RH WIND       PRES   REMARKS
BAUDETTE       CLOUDY    26  23  88 S6        30.05F WCI  19
INTL FALLS     CLOUDY    26  22  84 S6        30.09F WCI  19
6HR MIN TEMP:  22; 6HR MAX TEMP:  26;

WASKISH        CLOUDY    32  27  80 SE6       30.07F WCI  26
BIG FORK       CLOUDY    28  23  80 S7        30.11S WCI  21
LONGVILLE      CLOUDY    32  25  74 S8        30.10F WCI  25
GRAND RAPIDS   CLOUDY    27  21  80 S8        30.12R WCI  18
CRANE LAKE     CLOUDY    25  21  86 S3        30.13F
ORR            CLOUDY    25  21  86 S7        30.09F WCI  17
COOK           CLOUDY    25  23  93 S3        30.12F
WALKER         CLOUDY    30  25  82 S8        30.09F WCI  22
$$
MNZ012-019>021-037-271900-
   Northeast Minnesota

CITY           SKY/WX    TMP DP  RH WIND       PRES   REMARKS
DULUTH         CLOUDY    28  21  75 SW7       30.13S WCI  21
6HR MIN TEMP:  25; 6HR MAX TEMP:  28;

ELY            CLOUDY    25  21  86 SW6       30.13R WCI  18
HIBBING        CLOUDY    27  22  81 S5        30.12F WCI  22
EVELETH        CLOUDY    27  25  93 S7        30.13S WCI  19
DULUTH HARBOR  CLOUDY    30  25  80 CALM      30.20R
TWO HARBORS    CLOUDY    30  23  74 W5        30.15R WCI  25
SILVER BAY     CLOUDY    30  23  74 CALM      30.14R
GRAND MARAIS     N/A     30  21  69 CALM      30.17S
G MARAIS ARPRT   N/A     25  18  74 S3        30.10F
$$
MNZ029>031-032-039>041-046>048-054>057-064-271900-
   West Central Minnesota

CITY           SKY/WX    TMP DP  RH WIND       PRES   REMARKS
FERGUS FALLS   CLOUDY    28  28 100 SE13      30.11F WCI  18
WHEATON        CLOUDY    27  27 100 SE16      30.10F FOG     WCI  14
MORRIS         CLOUDY    30  30 100 SE15      30.09S FOG     WCI  19
ALEXANDRIA     CLOUDY    30  27  88 SE13      30.10F WCI  20
ELBOW LAKE     CLOUDY    29  29 100 SE15      30.09F WCI  18
WADENA         CLOUDY    28  27  93 SE10      30.09F WCI  19
GLENWOOD       CLOUDY    30  28  93 SE9       30.11F WCI  22
APPLETON       CLOUDY    32  30  93 S9        30.10F FOG     WCI  24
BENSON         CLOUDY    30  28  93 S10       30.11F WCI  21
ORTONVILLE     FOG       28  27  93 SE10      30.08F VSB 1/2 WCI  19
MADISON        FOG       34  34 100 S12       30.09F VSB 1/2 WCI  25
WILLMAR        CLOUDY    34  28  80 SE12      30.14S WCI  25
$$
MNZ033>034-036-042>043-049>051-058-059-271900-
   Central Minnesota

CITY           SKY/WX    TMP DP  RH WIND       PRES   REMARKS
ST CLOUD       CLOUDY    32  26  78 SE9       30.14F WCI  24
6HR MIN TEMP:  31; 6HR MAX TEMP:  32;

SAUK CENTRE    CLOUDY    30  28  90 S7        30.13S WCI  24
PAYNESVILLE    CLOUDY    29  27  90 E6        30.14S WCI  23
AITKIN         CLOUDY    34  25  69 S6        30.12F WCI  29
PINE RIVER     CLOUDY    30  25  80 SE8       30.14F WCI  23
BRAINERD       CLOUDY    31  25  78 S7        30.13F WCI  24
STAPLES        CLOUDY    30  27  86 SE7       30.11F WCI  23
LONG PRAIRIE   CLOUDY    30  28  93 SE7       30.12F WCI  23
LITTLE FALLS   CLOUDY    32  27  80 SE5       30.14S WCI  27
LITCHFIELD     CLOUDY    34  30  86 S3        30.14F
BUFFALO        CLOUDY    34  26  73 SE5       30.16F WCI  30
MAPLE LAKE     CLOUDY    34  29  81 SE6       30.16F WCI  29
$$
MNZ037-044-045-052-053-271900-
   East Central Minnesota

CITY           SKY/WX    TMP DP  RH WIND       PRES   REMARKS
PRINCETON      CLOUDY    34  27  75 SE6       30.17S WCI  29
MORA           CLOUDY    32  25  74 SE3       30.18S
CAMBRIDGE      CLOUDY    34  23  64 CALM      30.15F
RUSH CITY      CLOUDY    31  24  75 CALM      30.18S
MOOSE LAKE     CLOUDY    30  25  80 S5        30.14F WCI  25
HINCKLEY       CLOUDY    32  27  80 S3        30.16F
CLOQUET        CLOUDY    27  21  80 S5        30.14F WCI  21
MCGREGOR       CLOUDY    32  27  80 SW5       30.14F WCI  27
$$
MNZ071>073-080-081-089-090-097-098-271900-
   Southwest Minnesota

CITY           SKY/WX    TMP DP  RH WIND       PRES   REMARKS
MONTEVIDEO     CLOUDY    30  30 100 S10       30.12F WCI  21
GRANITE FALLS  CLOUDY    31  30  96 SE12      30.13F WCI  21
CANBY          CLOUDY    31  30  99 SE10      30.10F FOG     WCI  22
MARSHALL       CLOUDY    30  27  86 SE13G18   30.12F WCI  20
REDWOOD FALLS  CLOUDY    32  29  88 S14       30.12F WCI  22
OLIVIA         CLOUDY    30  28  93 S9        30.13S WCI  22
PIPESTONE      FOG       30  30 100 S9        30.07F VSB 1/4 WCI  22
WINDOM         CLOUDY    36  30  80 SE9       30.12F
WORTHINGTON    CLOUDY    30  28  93 SE12      30.12S WCI  21
JACKSON        PTSUNNY   36  32  87 SE8       30.13S
TRACY          CLOUDY    32  32  99 S13       30.11F WCI  22
SLAYTON        FOG       30  30  99 SE14      30.11S VSB 1   WCI  20
$$
MNZ065>067-074>077-082>085-091>093-271900-
   South Central Minnesota

CITY           SKY/WX    TMP DP  RH WIND       PRES   REMARKS
MANKATO        PTSUNNY   36  27  69 SE12      30.14F
NEW ULM        CLOUDY    34  28  80 S6        30.13F WCI  29
ST JAMES       CLOUDY    36  30  80 SE7       30.15F
FAIRMONT       CLOUDY    34  23  64 SE8       30.14F WCI  27
GLENCOE        CLOUDY    35  29  80 SE6       30.14F WCI  30
FARIBAULT      CLOUDY    34  27  75 CALM      30.16F
OWATONNA       CLOUDY    34  27  75 E5        30.16S WCI  30
WASECA         CLOUDY    34  28  80 E6        30.17S WCI  29
ALBERT LEA     CLOUDY    36  28  75 E6        30.14S
$$
MNZ078>079-086>088-094>096-271900-
   Southeast Minnesota

CITY           SKY/WX    TMP DP  RH WIND       PRES   REMARKS
ROCHESTER      CLOUDY    30  25  81 E6        30.17R WCI  24
6HR MIN TEMP:  30; 6HR MAX TEMP:  31;

RED WING       CLOUDY    32  25  74 SE7       30.18F WCI  26
STANTON        CLOUDY    33  26  75 E5        30.16S WCI  29
DODGE CENTER   CLOUDY    32  27  80 E5        30.16S WCI  27
WINONA         CLOUDY    30  23  74 CALM      30.22S
AUSTIN         CLOUDY    32  27  80 E6        30.16R WCI  26
PRESTON        CLOUDY    28  24  84 CALM      30.17S
$$
ABBREVIATIONS USED IN REMARKS
   TC - TEMPERATURES IN CELSIUS
  WCI - WIND CHILL INDEX
   HX - HEAT INDEX
  VSB - VISIBILITY
$$



USA.gov is the U.S. government's official web portal to all federal, state and local government web resources and services.